Tracking 35274 objects as of 12-Sep-2026
HD Live streaming from Space Station
objects crossing your sky now

COSMOS 1408 DEB


COSMOS 1408 DEB is no longer on orbit


NORAD ID: 51523
Int'l Code: 1982-092BKW
Launch date: September 16, 1982
Source: Commonwealth of Independent States (former USSR) (CIS)
Launch site: PLESETSK MISSILE AND SPACE COMPLEX (PKMTR)
Decay date: 2023-02-11

Note: This is SATELLITE DEBRIS
Your satellite tracking list
Your tracking list is empty




NASA's NSSDC Master Catalog

Two Line Element Set (TLE):
1 51523U 82092BKY 23041.93868367  .05271838 -11867-5  35748-2 0  9999
2 51523  82.5466  22.3677 0009507 164.1389 196.0198 16.16650939 58103
Source of the keplerian elements: AFSPC